Waarnemingen

Advertentie
Mijn weer
Greifswalder Oie, Duitsland (10097): temperatuur & dauwpunt: 13.10.2017 12:00:00 - 19.10.2017 12:00:00 (CEST)Greifswalder Oie, Duitsland (10097): temperatuur 5cm & temperatuur -5cm: 13.10.2017 12:00:00 - 19.10.2017 12:00:00 (CEST)Greifswalder Oie, Duitsland (10097): temperatuur -20cm & temperatuur -100cm: 13.10.2017 12:00:00 - 19.10.2017 12:00:00 (CEST)Greifswalder Oie, Duitsland (10097): water temperatuur: 13.10.2017 12:00:00 - 19.10.2017 12:00:00 (CEST)Greifswalder Oie, Duitsland (10097): windsnelheid & windstoten: 13.10.2017 12:00:00 - 19.10.2017 12:00:00 (CEST)Greifswalder Oie, Duitsland (10097): windrichting: 13.10.2017 12:00:00 - 19.10.2017 12:00:00 (CEST)Greifswalder Oie, Duitsland (10097): luchtdruk: 13.10.2017 12:00:00 - 19.10.2017 12:00:00 (CEST)Greifswalder Oie, Duitsland (10097): zicht: 13.10.2017 12:00:00 - 19.10.2017 12:00:00 (CEST)Greifswalder Oie, Duitsland (10097): Zonneschijnduur: 13.10.2017 12:00:00 - 19.10.2017 12:00:00 (CEST)Greifswalder Oie, Duitsland (10097): neerslag: 13.10.2017 12:00:00 - 19.10.2017 12:00:00 (CEST)
Datum & Tijd tt [°C] td [°C] tt 5cm [°C] tt -5cm [°C] tt -20cm [°C] tt -100cm [°C] tw [°C] ff [km/u] ff [kn] fx [km/u] fx [kn] dd ppp [hPa] vv [km] sd [min] rr [mm]
19.10.2017 12:00:00 13,0 10,9 15,2 13,4 12,0 13,3 12,9 16 9 28 15 OZO 1016,5 9 29 0,0
19.10.2017 11:00:00 12,4 10,3 12,8 12,1 11,9 13,3 12,8 18 10 27 14 O 1016,7 21 0 0,0
19.10.2017 10:00:00 12,2 10,2 12,1 11,5 11,8 13,3 12,7 19 11 26 14 O 1016,6 30 0 0,0
19.10.2017 09:00:00 12,2 10,4 11,8 11,1 11,8 13,3 12,8 16 8 22 12 O 1016,4 31 0 0,0
19.10.2017 08:00:00 12,1 9,9 11,4 10,8 11,8 13,3 12,6 15 8 21 11 O 1016,1 28 0 0,0
19.10.2017 07:00:00 11,9 9,9 10,6 10,7 11,8 13,3 12,5 17 9 24 13 OZO 1015,8 32 0 0,0
19.10.2017 06:00:00 11,9 10,4 11,0 10,5 11,8 13,3 12,6 16 9 22 12 OZO 1016,2 24 0 0,0
19.10.2017 05:00:00 11,8 10,3 10,4 10,3 11,9 13,3 12,7 14 7 20 11 OZO 1016,0 26 0 0,0
19.10.2017 04:00:00 11,9 10,8 10,5 10,3 12,0 13,3 12,8 14 7 21 11 OZO 1015,9 18 0 0,0
19.10.2017 03:00:00 12,0 10,9 10,7 10,4 12,1 13,3 12,8 15 8 21 11 OZO 1015,9 18 0 0,0
19.10.2017 02:00:00 12,0 11,2 10,8 10,6 12,2 13,3 12,9 12 6 16 9 O 1016,1 13 0 0,0
19.10.2017 01:00:00 12,0 11,2 11,0 10,7 12,3 13,3 12,9 11 6 16 9 O 1016,1 14 0 0,0
19.10.2017 00:00:00 11,7 11,2 10,1 10,6 12,5 13,3 12,9 9 5 12 6 ONO 1016,0 8 0 0,0
18.10.2017 23:00:00 11,8 11,2 10,5 10,8 12,7 13,3 13,0 7 4 11 6 O 1016,0 11 0 0,0
18.10.2017 22:00:00 11,9 11,5 10,5 10,6 12,9 13,3 13,0 8 5 10 5 O 1016,0 9 0 0,0
18.10.2017 21:00:00 11,7 11,3 6,7 10,8 13,2 13,3 13,0 6 4 9 5 OZO 1015,7 8 0 0,0
18.10.2017 20:00:00 11,7 10,8 6,5 11,4 13,5 13,3 13,0 5 3 7 4 O 1015,6 11 0 0,0
18.10.2017 19:00:00 11,9 11,1 7,0 12,3 13,8 13,3 13,1 5 3 7 4 OZO 1015,8 9 0 0,0
18.10.2017 18:00:00 12,5 10,6 9,2 13,8 13,9 13,3 13,1 4 2 7 4 Z 1015,5 19 11 0,0
18.10.2017 17:00:00 13,7 10,4 13,5 15,2 13,8 13,3 13,2 5 3 9 5 WZW 1015,4 24 59 0,0
18.10.2017 16:00:00 14,1 10,5 15,5 15,9 13,6 13,3 13,3 8 4 12 7 WZW 1015,4 17 60 0,0
18.10.2017 15:00:00 14,2 11,0 16,0 16,0 13,3 13,3 13,5 10 5 16 8 WZW 1015,6 12 52 0,0
18.10.2017 14:00:00 13,1 10,4 14,1 16,1 13,0 13,3 13,4 13 7 18 10 W 1015,6 13 52 0,0
18.10.2017 13:00:00 13,4 10,4 16,4 15,6 12,6 13,3 13,2 16 8 22 12 W 1016,0 8 60 0,0
18.10.2017 12:00:00 13,1 10,2 15,8 14,5 12,2 13,3 13,0 16 9 20 11 WZW 1016,2 7 60 0,0
18.10.2017 11:00:00 12,3 10,2 15,0 12,7 12,0 13,3 12,8 18 10 24 13 W 1016,3 11 60 0,0
18.10.2017 10:00:00 12,1 10,3 13,3 11,4 12,0 13,3 12,6 20 11 29 15 WZW 1016,0 9 60 0,0
18.10.2017 09:00:00 11,8 10,3 11,5 10,6 12,0 13,3 12,6 23 13 32 18 WZW 1015,8 13 11 0,0
18.10.2017 08:00:00 11,7 10,4 10,7 10,4 12,1 13,3 12,6 25 14 35 19 WZW 1015,4 13 0 0,0
18.10.2017 07:00:00 11,7 10,2 10,8 10,5 12,2 13,3 12,7 30 16 37 20 WZW 1015,2 15 0 0,0
18.10.2017 06:00:00 11,8 10,3 10,9 10,7 12,3 13,3 12,7 29 16 36 19 WZW 1015,2 14 0 0,0
18.10.2017 05:00:00 12,0 10,4 11,1 10,8 12,5 13,3 12,7 29 16 35 19 WZW 1015,2 16 0 0,0
18.10.2017 04:00:00 12,2 10,4 11,2 11,0 12,6 13,3 12,7 27 14 32 18 WZW 1015,5 17 0 0,0
18.10.2017 03:00:00 12,6 10,4 11,6 11,2 12,7 13,3 12,8 28 15 35 19 W 1015,7 18 0 0,0
18.10.2017 02:00:00 12,7 10,8 11,7 11,3 12,8 13,3 12,8 26 14 37 20 WZW 1015,9 16 0 0,0
18.10.2017 01:00:00 13,0 10,8 12,0 11,5 12,9 13,3 12,9 29 16 37 20 W 1016,0 18 0 0,0
18.10.2017 00:00:00 13,4 10,6 12,4 11,7 13,0 13,3 12,9 32 17 40 21 WZW 1016,1 20 0 0,0
17.10.2017 23:00:00 13,6 11,0 12,7 11,8 13,1 13,3 12,9 29 15 36 19 WZW 1016,6 19 0 0,0
17.10.2017 22:00:00 13,8 11,0 12,7 11,9 13,3 13,3 13,0 25 14 32 17 WZW 1016,7 19 0 0,0
17.10.2017 21:00:00 14,2 10,8 13,1 12,1 13,4 13,3 13,0 29 16 34 19 WZW 1016,7 21 0 0,0
17.10.2017 20:00:00 14,5 10,6 13,2 12,2 13,6 13,3 13,2 27 15 31 17 ZW 1016,6 23 0 0,0
17.10.2017 19:00:00 14,3 10,9 12,9 12,6 13,8 13,3 13,2 22 12 27 15 ZZW 1016,7 23 0 0,0
17.10.2017 18:00:00 15,1 10,7 13,5 13,2 13,9 13,3 13,4 24 13 31 17 ZW 1016,9 24 0 0,0
17.10.2017 17:00:00 15,4 10,7 14,5 14,1 13,9 13,3 13,6 29 16 37 20 ZW 1017,0 22 12 0,0
17.10.2017 16:00:00 15,4 11,7 15,2 14,9 13,8 13,3 13,7 28 15 32 17 ZW 1017,4 13 16 0,0
17.10.2017 15:00:00 15,5 11,9 15,5 14,9 13,7 13,3 13,6 29 16 35 19 ZW 1017,6 20 0 0,0
17.10.2017 14:00:00 15,5 12,0 15,5 14,9 13,6 13,3 13,5 31 17 36 19 WZW 1018,1 13 0 0,0
17.10.2017 13:00:00 15,4 13,2 15,4 14,8 13,4 13,3 13,4 22 12 29 16 ZZW 1018,3 11 0 0,0
17.10.2017 12:00:00 15,3 13,1 16,1 14,8 13,1 13,3 13,3 22 12 31 17 ZZW 1018,5 9 45 0,0
17.10.2017 11:00:00 15,0 12,6 15,5 13,8 13,0 13,3 13,1 29 16 34 19 ZW 1018,6 9 8 0,0
17.10.2017 10:00:00 14,7 12,4 13,8 13,0 12,9 13,3 13,0 28 15 34 19 WZW 1018,8 12 0 0,0
17.10.2017 09:00:00 14,6 12,4 13,2 12,4 12,9 13,3 12,9 26 14 31 17 WZW 1018,8 14 0 0,0
17.10.2017 08:00:00 14,3 12,4 12,9 12,3 12,9 13,3 13,0 26 14 31 17 ZW 1018,3 13 0 0,0
17.10.2017 07:00:00 13,9 12,7 12,7 12,2 13,0 13,3 13,0 21 12 27 15 ZZW 1018,3 10 0 0,0
17.10.2017 06:00:00 13,9 12,9 12,7 12,2 13,0 13,3 13,1 18 10 28 15 ZZW 1018,4 8 0 0,0
17.10.2017 05:00:00 13,6 13,0 12,7 12,3 13,0 13,3 13,1 17 9 26 14 Z 1018,7 4,8 0 0,0
17.10.2017 04:00:00 13,5 13,1 13,1 12,2 13,1 13,3 13,1 17 9 23 13 Z 1019,2 3,3 0 0,0
17.10.2017 03:00:00 13,2 13,0 12,5 11,8 13,2 13,3 13,1 13 7 20 11 Z 1019,9 2,2 0 0,0
17.10.2017 02:00:00 13,0 12,7 12,3 11,8 13,3 13,3 13,1 14 8 19 10 ZO 1020,3 1,8 0 0,0
17.10.2017 01:00:00 12,7 12,6 11,7 11,9 13,4 13,3 13,2 14 7 17 9 OZO 1020,7 1,3 0 0,0
17.10.2017 00:00:00 12,8 12,7 12,2 12,1 13,6 13,3 13,2 14 7 20 11 ZO 1021,0 1,3 0 0,0
16.10.2017 23:00:00 12,8 12,6 12,1 12,2 13,8 13,3 13,2 14 8 19 10 ZO 1021,1 1,3 0 0,0
16.10.2017 22:00:00 12,9 12,8 11,8 12,3 14,1 13,3 13,3 10 5 12 7 ZO 1021,2 1,2 0 0,0
16.10.2017 21:00:00 12,6 12,6 10,5 12,5 14,4 13,2 13,3 8 4 10 5 ZO 1021,0 1,0 0 0,0
16.10.2017 20:00:00 12,5 12,4 8,5 13,0 14,7 13,2 13,4 3 1 8 4 W 1021,0 1,5 0 0,0
16.10.2017 19:00:00 12,8 12,5 9,3 14,0 14,9 13,2 13,5 8 4 13 7 NW 1020,9 1,3 0 0,0
16.10.2017 18:00:00 13,6 12,6 12,8 15,3 15,0 13,2 13,6 10 6 13 7 NW 1020,6 2,9 23 0,0
16.10.2017 17:00:00 14,5 12,9 14,8 16,8 14,9 13,2 13,9 9 5 15 8 NW 1020,6 3,8 56 0,0
16.10.2017 16:00:00 15,5 13,5 17,0 17,5 14,7 13,2 14,2 12 7 17 9 NNW 1020,7 4,7 43 0,0
16.10.2017 15:00:00 15,7 13,5 18,9 18,1 14,3 13,2 14,0 16 8 22 12 W 1020,7 5 60 0,0
16.10.2017 14:00:00 15,0 12,7 19,2 18,0 13,9 13,2 13,8 16 9 21 11 W 1020,5 5 60 0,0
16.10.2017 13:00:00 15,2 13,0 18,3 17,1 13,4 13,2 13,6 17 9 26 14 WZW 1020,3 5 60 0,0
16.10.2017 12:00:00 14,5 12,3 17,7 15,8 13,1 13,2 13,2 23 12 27 14 W 1020,2 6 60 0,0
16.10.2017 11:00:00 14,6 12,2 16,2 14,1 12,8 13,2 12,9 23 13 32 17 ZW 1019,6 7 60 0,0
16.10.2017 10:00:00 14,0 11,9 14,1 12,7 12,8 13,2 12,8 25 14 29 16 ZW 1019,8 7 60 0,0
16.10.2017 09:00:00 13,4 11,8 12,7 11,8 12,8 13,2 12,8 22 12 29 15 ZW 1019,4 12 45 0,0
16.10.2017 08:00:00 13,3 11,9 12,0 11,6 12,9 13,2 12,7 24 13 29 16 ZW 1019,0 13 0 0,0
16.10.2017 07:00:00 13,3 12,1 11,6 11,6 13,1 13,2 12,8 15 8 20 11 ZZW 1019,3 14 0 0,0
16.10.2017 06:00:00 13,3 12,3 11,9 11,8 13,2 13,2 12,9 17 9 22 12 Z 1019,4 11 0 0,0
16.10.2017 05:00:00 13,5 12,5 12,1 12,0 13,3 13,2 12,9 17 9 23 13 ZZW 1019,5 12 0 0,0
16.10.2017 04:00:00 13,4 12,8 12,3 12,2 13,4 13,2 12,9 21 11 24 13 ZZW 1019,7 6 0 0,0
16.10.2017 03:00:00 13,6 13,0 12,6 12,4 13,5 13,2 12,9 21 12 29 16 ZZW 1019,8 5 0 0,0
16.10.2017 02:00:00 13,7 13,2 12,8 12,5 13,6 13,1 13,0 26 14 31 17 ZZW 1020,0 4,3 0 0,0
16.10.2017 01:00:00 13,7 13,3 12,8 12,6 13,8 13,1 13,0 16 9 24 13 Z 1020,3 3,6 0 0,0
16.10.2017 00:00:00 13,7 13,4 12,6 12,7 13,9 13,1 13,1 15 8 25 13 Z 1020,7 3,9 0 0,0
15.10.2017 23:00:00 14,0 13,5 12,8 12,9 14,1 13,1 13,1 14 8 24 13 Z 1021,1 6 0 0,0
15.10.2017 22:00:00 14,3 13,6 13,2 13,1 14,3 13,1 13,2 14 8 23 13 Z 1021,4 9 0 0,0
15.10.2017 21:00:00 14,0 13,5 13,0 13,3 14,5 13,1 13,3 15 8 24 13 Z 1021,9 8 0 0,0
15.10.2017 20:00:00 14,3 13,6 13,3 13,8 14,7 13,1 13,4 15 8 23 13 Z 1022,3 11 0 0,0
15.10.2017 19:00:00 14,0 13,4 13,0 14,2 14,9 13,1 13,5 12 6 21 11 ZZO 1022,7 9 0 0,0
15.10.2017 18:00:00 13,8 13,1 13,0 15,3 15,0 13,1 13,4 10 5 17 9 ZO 1023,0 7 54 0,0
15.10.2017 17:00:00 14,9 13,7 15,9 16,2 15,0 13,1 14,1 8 4 23 13 Z 1023,3 9 6 0,0
15.10.2017 16:00:00 14,8 13,5 15,6 16,6 14,9 13,1 14,1 17 9 24 13 Z 1023,9 10 3 0,0
15.10.2017 15:00:00 15,2 13,6 16,1 16,8 14,8 13,1 14,1 21 11 28 15 ZZW 1024,2 11 0 0,0
15.10.2017 14:00:00 15,0 13,3 16,1 18,4 14,4 13,1 14,0 22 12 26 14 ZZW 1024,5 8 44 0,0
15.10.2017 13:00:00 15,0 13,4 17,7 17,7 14,1 13,1 13,6 16 9 23 13 WZW 1024,8 8 52 0,0
15.10.2017 12:00:00 14,6 13,0 18,0 16,8 13,7 13,1 13,4 16 9 23 13 WZW 1025,0 6 57 0,0
15.10.2017 11:00:00 14,0 12,9 16,7 15,2 13,5 13,1 13,1 17 9 23 13 WZW 1025,1 4,8 58 0,0
15.10.2017 10:00:00 13,7 13,1 16,2 14,0 13,4 13,1 13,0 14 8 26 14 WZW 1025,0 3,7 33 0,0
15.10.2017 09:00:00 13,6 13,3 13,5 13,4 13,4 13,1 12,9 22 12 32 17 W 1024,6 2,5 9 0,0
15.10.2017 08:00:00 14,0 13,4 13,7 13,5 13,4 13,1 12,9 29 15 36 19 W 1024,0 5 0 0,0
15.10.2017 07:00:00 14,0 13,2 13,9 13,4 13,5 13,1 12,9 25 13 30 16 W 1023,8 8 0 0,0
15.10.2017 06:00:00 13,9 13,2 13,8 13,4 13,5 13,1 12,9 25 13 31 17 WZW 1023,4 6 0 0,0
15.10.2017 05:00:00 14,1 13,2 13,9 13,4 13,5 13,1 13,0 29 16 35 19 W 1023,0 7 0 0,0
15.10.2017 04:00:00 14,1 13,3 13,3 13,2 13,6 13,1 12,9 27 15 33 18 WZW 1022,6 7 0 0,0
15.10.2017 03:00:00 14,2 13,4 14,0 13,6 13,6 13,0 12,9 29 15 32 17 WZW 1022,5 6 0 0,0
15.10.2017 02:00:00 14,2 13,5 13,8 13,7 13,6 13,0 12,9 29 16 36 20 WZW 1022,7 3,5 0 0,0
15.10.2017 01:00:00 14,6 13,3 14,4 13,7 13,6 13,0 13,0 29 16 34 19 WZW 1022,6 7 0 0,0
15.10.2017 00:00:00 14,6 13,4 14,4 13,7 13,6 13,0 13,0 29 15 34 18 WZW 1022,6 9 0 0,0
14.10.2017 23:00:00 14,4 13,4 14,3 13,7 13,7 13,0 13,0 24 13 34 18 WZW 1022,8 12 0 0,0
14.10.2017 22:00:00 14,2 13,5 14,0 13,8 13,7 13,0 13,0 21 11 34 18 W 1023,2 7 0 0,0
14.10.2017 21:00:00 14,5 13,8 14,4 13,9 13,7 13,0 13,1 26 14 34 18 WZW 1022,8 7 0 0,0
14.10.2017 20:00:00 14,2 13,9 14,0 14,0 13,7 13,0 13,2 24 13 34 18 WZW 1022,6 4,7 0 0,0
14.10.2017 19:00:00 14,4 13,7 14,4 14,1 13,8 13,0 13,1 27 15 36 19 WZW 1022,3 8 0 0,0
14.10.2017 18:00:00 14,7 13,8 14,6 14,3 13,7 13,0 13,0 26 14 33 18 WZW 1021,9 11 0 0,0
14.10.2017 17:00:00 15,0 13,8 15,1 14,5 13,7 13,0 13,0 29 16 35 19 WZW 1021,3 14 0 0,0
14.10.2017 16:00:00 14,8 13,7 15,0 14,7 13,6 13,0 13,0 28 15 32 18 WZW 1021,1 9 0 0,0
14.10.2017 15:00:00 14,6 13,5 15,3 14,7 13,5 13,0 13,0 26 14 39 21 W 1021,2 6 0 0,0
14.10.2017 14:00:00 14,9 13,7 15,5 14,8 13,4 13,0 12,9 34 18 41 22 WZW 1020,5 7 0 0,0
14.10.2017 13:00:00 14,6 13,4 15,0 14,5 13,3 13,0 12,9 35 19 45 24 WZW 1020,6 6 0 0,0
14.10.2017 12:00:00 14,9 13,4 15,3 14,6 13,1 13,0 12,8 39 21 45 24 WZW 1020,5 6 0 0,0
14.10.2017 11:00:00 14,7 13,3 15,0 14,0 13,0 13,0 12,7 38 20 44 24 WZW 1020,5 8 0 0,0
14.10.2017 10:00:00 14,5 13,1 14,7 13,8 12,9 13,0 12,6 35 19 44 24 WZW 1020,3 7 0 0,0
14.10.2017 09:00:00 14,6 13,1 14,6 13,3 12,8 13,0 12,5 35 19 44 24 WZW 1020,0 7 0 0,0
14.10.2017 08:00:00 14,3 12,9 14,2 13,0 12,7 13,0 12,5 31 17 41 22 WZW 1019,9 6 0 0,0
14.10.2017 07:00:00 14,2 12,8 13,9 12,9 12,7 13,0 12,5 34 18 39 21 ZW 1019,8 8 0 0,0
14.10.2017 06:00:00 14,2 12,7 14,0 12,8 12,7 13,0 12,5 33 18 40 22 ZW 1020,2 10 0 0,0
14.10.2017 05:00:00 14,1 12,4 13,9 12,7 12,6 13,0 12,5 29 16 41 22 ZW 1020,3 11 0 0,0
14.10.2017 04:00:00 14,0 12,1 13,8 12,6 12,6 13,0 12,4 33 18 39 21 ZW 1020,5 15 0 0,0
14.10.2017 03:00:00 14,0 11,7 13,7 12,5 12,6 13,0 12,4 31 17 36 20 ZW 1020,9 17 0 0,0
14.10.2017 02:00:00 13,8 11,5 13,5 12,4 12,6 13,0 12,4 28 15 33 18 ZW 1021,4 18 0 0,0
14.10.2017 01:00:00 13,6 11,4 13,3 12,3 12,7 13,0 12,4 27 14 29 16 ZW 1021,4 19 0 0,0
14.10.2017 00:00:00 13,4 11,3 13,1 12,2 12,7 13,0 12,5 27 14 31 17 ZW 1021,5 19 0 0,0
13.10.2017 23:00:00 13,0 11,2 12,8 12,2 12,8 13,0 12,5 23 12 30 16 ZW 1021,8 18 0 0,0
13.10.2017 22:00:00 12,7 11,2 12,5 12,1 12,9 13,0 12,6 22 12 26 14 ZZW 1022,0 17 0 0,0
13.10.2017 21:00:00 12,6 11,0 12,0 12,0 13,1 13,0 12,7 21 11 25 13 ZZW 1022,2 19 0 0,0
13.10.2017 20:00:00 12,6 10,8 11,7 12,2 13,3 13,0 12,9 18 10 22 12 ZW 1022,1 26 0 0,0
13.10.2017 19:00:00 12,9 10,5 11,9 13,0 13,4 13,0 13,0 16 9 19 10 ZW 1022,2 30 0 0,0
13.10.2017 18:00:00 13,1 10,6 12,7 14,1 13,4 13,0 13,0 14 8 16 9 WZW 1022,2 32 24 0,0
13.10.2017 17:00:00 13,6 10,7 14,5 15,3 13,3 13,0 12,9 12 6 16 9 ZW 1022,1 22 57 0,0
13.10.2017 16:00:00 14,4 11,1 16,5 15,7 13,0 13,0 13,0 12 7 21 11 WZW 1022,1 14 60 0,0
13.10.2017 15:00:00 13,5 10,6 15,6 15,8 12,7 13,0 12,8 18 10 22 12 W 1021,9 10 60 0,0
13.10.2017 14:00:00 13,1 10,8 16,3 15,0 12,3 13,0 12,7 23 12 36 20 W 1021,7 6 60 0,0
13.10.2017 13:00:00 12,8 10,6 14,8 14,2 12,0 13,0 12,4 29 16 40 22 W 1021,4 6 55 0,0
13.10.2017 12:00:00 12,1 10,3 13,4 13,3 11,8 13,0 12,2 35 19 44 24 W 1021,4 7 53 0,0

tt = temperatuur
td = dauwpunt
tt 5cm = temperatuur 5cm
tt -5cm = temperatuur -5cm
tt -20cm = temperatuur -20cm
tt -100cm = temperatuur -100cm
tw = water temperatuur
ff = windsnelheid
fx = windstoten
dd = windrichting
ppp = luchtdruk
vv = zicht
sd = Zonneschijnduur
rr = neerslag

Weerstations in de omgeving